SL-14 DEB, 45350

Orbit data source: Space-Track

SL-14 DEB, 45350 is space debris in LEO originally from a launch on Thu, 15 Aug 1991 UTC launched from the Plesetsk Missile And Space Complex (PKMTR). Debris objects in space refer to the collection of defunct objects orbiting the Earth. Examples of debris include non-operational satellites, rocket bodies, and fragments generated from explosions, collisions, or faulty payload assembly.

Loading next visibility...
Identifier
45350, 1991-056CJ
Orbit
LEO
Country
Flag of CISCIS
Related business
Manufacturer
Unknown
Mission
Spacecraft
Bus & Motor
Unknown
Mass
Unknown
Launch date (UTC)
1991-08-15 (34 years ago)
Launch vehicle
Unknown
Launch site
Plesetsk Missile And Space Complex (PKMTR)
Object type
Payload
Rocket body
Debris
Shape & HBR
Unknown shape, 0.1 m
Radar Cross Section
Small (<0.1 m²)

Expand to show TLE details & history
Last TLE update: 2 days ago

TLE from 2 days ago
0 SL-14 DEB
1 45350U 91056CJ  25285.05147899  .00000577  00000-0  13548-2 0  9995
2 45350  82.5863 311.4019 0034762 204.3963 155.5518 13.22165236273024
Epoch: 2025-10-12T01:14Z
TLE epoch observation values (Epoch: 2025-10-12T01:14:07.784Z)
Latitude
-0.0001°
Longitude
-88.00471°
Altitude
1,203.203 km
Speed
7.241 km/s
True Right ascension
20h 45m 36s
True Declination
0° 00' 00"
Sunlit
Object was in daylight at epoch
Visualization orbit readout
Latitude
Unknown
Longitude
Unknown
Altitude
Unknown
Speed
Unknown
Apparent Right ascension
Unknown
Apparent Declination
Unknown
Sunlit
N/A
Visualization observer readout
Local Sidereal Time
23:48:25
Azimuth
Unknown
Elevation
Unknown
Doppler factor
Unknown
Orbital elements
Apogee altitude
1,199.949 km
Perigee altitude
1,147.445 km
Semi-major axis
7,551.834 km
Eccentricity
0.00348
Inclination
82.5863°
RAAN
311.4019°
Arg. of periapsis
204.3963°
True anomaly
155.71601°
Mean anomaly
155.5518°
Eccentric anomaly
155.63397°
Mean motion
3.30723 °/min
Orbital period
108.85 mins
BSTAR
0.0013548
Loading maneuver chart data...
Computing Atmospheric mass density...
Loading historical data...
Loading historical data...
Loading historical data...
Loading historical data...
Loading historical data...
Loading historical data...
Loading historical data...

Documentation

Showing up to 5 results
|